Meteo Giornale » Osservazioni meteo Svizzera » Dubendorf

ore: 22:20 - Osservazioni Meteo Dubendorf
Lat. 47° 24' N Lon. 8° 39' E Alt. 448 metri s.l.m.

molto_nuvoloso Europe/Zurich

17 °C

Molto Nuvoloso

Temp. 24 Ore

11 °C

20 °C

Nord

1.8 Km/h

Dew point 12 °C

Umidità 72 %

Visibilità  10 Km

Il sole sorge alle ore 06:28

Il sole tramonta alle ore 20:28

Data e Ora Cielo e Fenomeni T °C DP °C Um. % Pres. hPa Vis. km Vento km/h
Oggi h: 22:20 molto_nuvoloso Molto Nuvoloso 17 12 72 1025 10 N 1.8
Oggi h: 21:50 nuvoloso Nuvoloso 17 12 72 1025 10 E/NE 14.8
Oggi h: 21:20 molto_nuvoloso Molto Nuvoloso 18 12 67 1025 10 NE 13
Oggi h: 20:50 molto_nuvoloso Molto Nuvoloso 18 12 67 1025 10 E/NE 16.7
Oggi h: 20:20 molto_nuvoloso Molto Nuvoloso 18 12 67 1025 10 E/NE 13
Oggi h: 19:50 molto_nuvoloso Molto Nuvoloso 18 12 67 1025 10 E/NE 14.8
Oggi h: 19:20 poco_nuvoloso Poco Nuvoloso 19 11 59 1025 10 NE 22.2
Oggi h: 18:50 poco_nuvoloso Poco Nuvoloso 19 11 59 1025 10 NE 16.7
Oggi h: 18:20 molto_nuvoloso Molto Nuvoloso 19 12 63 1026 10 NE 20.3
Oggi h: 17:50 molto_nuvoloso Molto Nuvoloso 20 12 59 1026 10 NE 14.8
Oggi h: 16:50 molto_nuvoloso Molto Nuvoloso 19 12 63 1026 10 E/NE 22.2
Oggi h: 16:20 molto_nuvoloso Molto Nuvoloso 19 12 63 1026 10 NE 22.2
Oggi h: 15:50 molto_nuvoloso Molto Nuvoloso 19 12 63 1026 10 E/NE 16.7
Oggi h: 15:20 molto_nuvoloso Molto Nuvoloso 19 12 63 1026 10 E/NE 18.5
Oggi h: 14:50 molto_nuvoloso Molto Nuvoloso 19 12 63 1026 10 E/NE 18.5
Oggi h: 14:20 molto_nuvoloso Molto Nuvoloso 19 13 68 1027 10 NE 13
Oggi h: 13:50 molto_nuvoloso Molto Nuvoloso 18 13 72 1027 10 NE 18.5
Oggi h: 13:20 molto_nuvoloso Molto Nuvoloso 18 12 67 1027 10 NE 20.3
Oggi h: 12:50 nuvoloso Nuvoloso 18 12 67 1027 10 NE 20.3
Oggi h: 12:20 nuvoloso Nuvoloso 18 12 67 1027 10 E/NE 22.2
Oggi h: 11:50 nuvoloso Nuvoloso 18 12 67 1027 10 E 20.3
Oggi h: 11:20 molto_nuvoloso Molto Nuvoloso 16 12 77 1027 10 E/NE 14.8
Oggi h: 10:50 molto_nuvoloso Molto Nuvoloso 17 13 77 1027 10 E 11.1
Oggi h: 10:20 molto_nuvoloso Molto Nuvoloso 15 12 82 1028 10 NE 13
Oggi h: 09:50 molto_nuvoloso Molto Nuvoloso 15 12 82 1028 10 NE 7.4
Oggi h: 09:20 nuvoloso Nuvoloso 14 12 87 1028 10 NE 9.3
Oggi h: 08:50 nuvoloso Nuvoloso 14 12 87 1028 10 N 1.8
Oggi h: 08:20 nuvoloso Nuvoloso 13 11 87 1028 10 N 3.7
Oggi h: 07:50 poco_nuvoloso Poco Nuvoloso 12 11 93 1028 10 N 5.5
Oggi h: 07:20 poco_nuvoloso Poco Nuvoloso 12 11 93 1028 9 N 5.5
Oggi h: 06:50 nuvoloso Nuvoloso 11 11 100 1028 9 NO 7.4
Oggi h: 06:20 nuvoloso Nuvoloso 12 11 93 1028 10 N 1.8
Oggi h: 05:50 poco_nuvoloso Poco Nuvoloso 11 9 87 1028 7 N 1.8
Oggi h: 04:50 poco_nuvoloso Poco Nuvoloso 12 11 93 1028 10 N 3.7
Oggi h: 04:20 poco_nuvoloso Poco Nuvoloso 12 11 93 1028 10 N 0
Oggi h: 03:50 poco_nuvoloso Poco Nuvoloso 12 11 93 1028 10 N 1.8
Oggi h: 03:20 poco_nuvoloso Poco Nuvoloso 12 11 93 1028 10 E/NE 7.4
Oggi h: 02:20 molto_nuvoloso Molto Nuvoloso 13 11 87 1028 10 N 5.5
Oggi h: 01:50 coperto Coperto 13 12 93 1028 10 N 0
Oggi h: 01:20 coperto Coperto 13 12 93 1028 10 N 5.5
Oggi h: 00:50 molto_nuvoloso Molto Nuvoloso 13 12 93 1028 10 N 5.5
Oggi h: 00:20 nuvoloso_piovaschi Debole Rovescio di Pioggia 13 12 93 1028 10 N 3.7
Ieri h: 23:50 nuvoloso_piovaschi Debole Rovescio di Pioggia 13 12 93 1028 10 N 5.5
Ieri h: 23:20 coperto_pioggia Pioggia Debole 14 13 93 1028 10 E/SE 7.4
Ieri h: 22:50 coperto_pioggia Pioggia Debole 14 13 93 1028 10 SE 7.4